Tracking 25710 objects as of 4-Jul-2022
HD Live streaming from Space Station
objects crossing your sky now

SKYSAT C15

Track SKYSAT C15 now!
10-day predictions


NORAD ID: 45790
Int'l Code: 2020-038BN
Perigee: 383.8 km
Apogee: 392.5 km
Inclination: 53.0 °
Period: 92.2 minutes
Semi major axis: 6759 km
RCS: Unknown
Launch date: June 13, 2020
Source: United States (US)
Launch site: AIR FORCE EASTERN TEST RANGE (AFETR)
aabbcc
Your satellite tracking list
Your tracking list is empty




NASA's NSSDC Master Catalog

Two Line Element Set (TLE):
1 45790U 20038BN  22185.42340148  .00020009  00000-0  22751-3 0  9993
2 45790  52.9918 243.1131 0006419  60.2890 299.8761 15.62311963117302
Source of the keplerian elements: AFSPC